This is the latest recevied weather packets stored in our database for station/object YO8PIC-5. If no packets are shown the sender has not sent any weather packets the latest 10 day(s).
| Time | Temp. | Humidity | Pressure | Rain* | Wind** | Luminosity | Snow |
|---|---|---|---|---|---|---|---|
| 1777453911 | 11.11° C | 23% | 1021.3 hPa | - | - | - | - |
| 1777453011 | 10.56° C | 23% | 1021.3 hPa | - | - | - | - |
| 1777452111 | 10° C | 24% | 1021.4 hPa | - | - | - | - |
| 1777451211 | 10° C | 25% | 1021.3 hPa | - | - | - | - |
| 1777450311 | 9.44° C | 26% | 1021.4 hPa | - | - | - | - |
| 1777449410 | 10° C | 28% | 1021.3 hPa | - | - | - | - |
| 1777448510 | 10° C | 31% | 1021.5 hPa | - | - | - | - |
| 1777447610 | 8.89° C | 31% | 1021.3 hPa | - | - | - | - |
| 1777446710 | 8.89° C | 34% | 1021.3 hPa | - | - | - | - |
| 1777445809 | 8.89° C | 33% | 1021.2 hPa | - | - | - | - |
| 1777444909 | 8.33° C | 32% | 1021.1 hPa | - | - | - | - |
| 1777444014 | 7.78° C | 35% | 1021.2 hPa | - | - | - | - |
| 1777443114 | 7.78° C | 33% | 1021 hPa | - | - | - | - |
| 1777442213 | 7.22° C | 36% | 1021 hPa | - | - | - | - |
| 1777441313 | 7.22° C | 39% | 1021.1 hPa | - | - | - | - |
| 1777440413 | 6.11° C | 40% | 1020.8 hPa | - | - | - | - |
| 1777439513 | 6.11° C | 39% | 1020.9 hPa | - | - | - | - |
| 1777438613 | 4.44° C | 45% | 1020.9 hPa | - | - | - | - |
| 1777437712 | 3.89° C | 46% | 1020.7 hPa | - | - | - | - |
| 1777436812 | 3.89° C | 52% | 1020.7 hPa | - | - | - | - |
| 1777435912 | 3.33° C | 54% | 1020.6 hPa | - | - | - | - |
| 1777435012 | 2.78° C | 53% | 1020.5 hPa | - | - | - | - |
| 1777434112 | 2.78° C | 52% | 1020.4 hPa | - | - | - | - |
| 1777433211 | 2.22° C | 54% | 1020.2 hPa | - | - | - | - |
| 1777432311 | 2.78° C | 47% | 1020.2 hPa | - | - | - | - |
* Rain since midnight (hover to see other rain measurements)
** Current wind speed in m/s (hover to see current wind gust speed)